Regional Weather Roundup
Issued by NWS

Home | Current Version | Previous Version | Text Only | Print | Product List | Glossary On
Versions: 1 2 3 4 5 6 7 8 9 10 11 12 13 14 15 16 17 18 19 20 21 22 23 24 25 26 27 28 29 30 31 32 33 34 35 36 37 38 39 40 41 42 43 44 45 46 47 48 49 50
000
ASUS44 KBMX 210210
RWRAL

ALABAMA REGIONAL WEATHER ROUNDUP
NATIONAL WEATHER SERVICE BIRMINGHAM AL
900 PM CDT MON OCT 20 2014

NOTE: "FAIR" INDICATES FEW OR NO CLOUDS BELOW 12,000 FEET
WITH NO SIGNIFICANT WEATHER AND/OR OBSTRUCTIONS TO VISIBILITY.

THE REMARK "TC" DENOTES TEMPERATURE IN DEGREES CELSIUS.

ALZ001>011-014-016>018-020-210300-
NORTH ALABAMA

CITY           SKY/WX    TMP DP  RH WIND       PRES   REMARKS
MUSCLE SHOALS  CLEAR     54  49  83 CALM      30.04S
HUNTSVILLE     CLEAR     57  51  80 CALM      30.04R
DECATUR        CLEAR     54  50  86 CALM      30.04R
HALEYVILLE     FAIR      52  51  96 CALM      30.07R
GADSDEN        CLEAR     54  48  82 CALM      30.03R
$$

ALZ012-013-022-023-030>036-040>044-210300-
WEST CENTRAL ALABAMA

CITY           SKY/WX    TMP DP  RH WIND       PRES   REMARKS
TUSCALOOSA     CLEAR     58  53  84 CALM      30.04R
$$

ALZ015-024>027-033>036-040>044-210300-
CENTRAL ALABAMA

CITY           SKY/WX    TMP DP  RH WIND       PRES   REMARKS
BIRMINGHAM     CLEAR     58  52  80 CALM      30.05S
MONTGOMERY     CLEAR     62  50  64 CALM      30.02S
SHELBY CO ARPT CLEAR     58  53  84 CALM      30.03S
MAXWELL AFB    CLEAR     57  54  91 CALM      30.01S
GREENVILLE     FAIR      57  52  83 N3        30.02R
$$

ALZ019-021-028-029-037-038-045>048-210300-
EAST CENTRAL ALABAMA

CITY           SKY/WX    TMP DP  RH WIND       PRES   REMARKS
ANNISTON       PTCLDY    58  53  84 CALM      30.03S
ALEXANDER CITY CLEAR     56  53  91 CALM      30.03S
AUBURN         CLEAR     57  50  77 N5        30.06R
$$

ALZ051>064-210300-
SOUTHWEST ALABAMA

CITY           SKY/WX    TMP DP  RH WIND       PRES   REMARKS
MOBILE         PTCLDY    57  53  86 N3        30.02R
BROOKLEY FIELD CLEAR     58  56  93 CALM      30.03R
EVERGREEN      CLEAR     57  53  86 CALM      30.02R
$$

ALZ049-050-065>069-210300-
SOUTHEAST ALABAMA

CITY           SKY/WX    TMP DP  RH WIND       PRES   REMARKS
DOTHAN         CLEAR     58  54  86 N5        30.04R
OZARK          CLEAR     65  54  66 N3        30.00S
TROY           CLEAR     56  53  90 CALM      30.02S
EUFAULA        FAIR      56  54  93 CALM      30.00R
$$



USA.gov is the U.S. government's official web portal to all federal, state and local government web resources and services.